When you browse on this site, cookies collect data to enhance your experience and personalize the content and advertising you see.
Visit our Privacy Policy to learn more. By continuing to use the site, you agree to this use of cookies and data.
  • en Suisse
  • Liste des pays
  • À 7 jours
  • Température de l'eau
  • Carte météo
  • Widgets météo
  • user-avatar
    Se connecter

    Météo par heure à Khulna

    Ce jour, 16 Février, Dimanche

    Heure Température Précipitation Vent Pression Humidité
    00:00 +21°C° 0 mm 2 m/s 759 mmHg 52%
    01:00 +21°C° 0 mm 1 m/s 759 mmHg 54%
    02:00 +20°C° 0 mm 1 m/s 759 mmHg 57%
    03:00 +17°C° 0 mm 0 m/s 759 mmHg 59%
    04:00 +17°C° 0 mm 0 m/s 759 mmHg 60%
    05:00 +17°C° 0 mm 0 m/s 759 mmHg 61%
    06:00 +17°C° 0 mm 0 m/s 759 mmHg 69%
    07:00 +19°C° 0 mm 0 m/s 760 mmHg 61%
    08:00 +22°C° 0 mm 0 m/s 760 mmHg 54%
    09:00 +26°C° 0 mm 1 m/s 761 mmHg 47%
    10:00 +28°C° 0 mm 1 m/s 761 mmHg 40%
    11:00 +30°C° 0 mm 1 m/s 761 mmHg 33%
    12:00 +31°C° 0 mm 2 m/s 761 mmHg 25%
    13:00 +32°C° 0 mm 2 m/s 760 mmHg 23%
    14:00 +34°C° 0 mm 2 m/s 759 mmHg 22%
    15:00 +34°C° 0 mm 3 m/s 759 mmHg 20%
    16:00 +31°C° 0 mm 2 m/s 759 mmHg 23%
    17:00 +30°C° 0 mm 2 m/s 759 mmHg 26%
    18:00 +27°C° 0 mm 1 m/s 759 mmHg 29%
    19:00 +26°C° 0 mm 1 m/s 760 mmHg 32%
    20:00 +25°C° 0 mm 1 m/s 760 mmHg 35%
    21:00 +23°C° 0 mm 2 m/s 761 mmHg 39%
    22:00 +23°C° 0 mm 1 m/s 760 mmHg 41%
    23:00 +22°C° 0 mm 1 m/s 760 mmHg 43%

    Demain, 17 Février, Lundi

    Heure Température Précipitation Vent Pression Humidité
    00:00 +21°C° 0 mm 1 m/s 760 mmHg 46%
    01:00 +21°C° 0 mm 1 m/s 760 mmHg 47%
    02:00 +20°C° 0 mm 1 m/s 759 mmHg 47%
    03:00 +18°C° 0 mm 0 m/s 759 mmHg 48%
    04:00 +20°C° 0 mm 1 m/s 759 mmHg 49%
    05:00 +19°C° 0 mm 1 m/s 759 mmHg 50%
    06:00 +19°C° 0 mm 1 m/s 759 mmHg 51%
    07:00 +21°C° 0 mm 1 m/s 760 mmHg 45%
    08:00 +24°C° 0 mm 1 m/s 761 mmHg 39%
    09:00 +26°C° 0 mm 1 m/s 761 mmHg 34%
    10:00 +28°C° 0 mm 1 m/s 761 mmHg 29%
    11:00 +31°C° 0 mm 1 m/s 761 mmHg 23%
    12:00 +33°C° 0 mm 1 m/s 760 mmHg 18%
    13:00 +34°C° 0 mm 2 m/s 760 mmHg 17%
    14:00 +35°C° 0 mm 2 m/s 759 mmHg 16%
    15:00 +35°C° 0 mm 3 m/s 758 mmHg 15%
    16:00 +32°C° 0 mm 2 m/s 758 mmHg 17%
    17:00 +30°C° 0 mm 2 m/s 758 mmHg 19%
    18:00 +28°C° 0 mm 2 m/s 758 mmHg 22%
    19:00 +27°C° 0 mm 2 m/s 759 mmHg 25%
    20:00 +25°C° 0 mm 2 m/s 759 mmHg 28%
    21:00 +24°C° 0 mm 2 m/s 759 mmHg 31%
    22:00 +23°C° 0 mm 2 m/s 759 mmHg 35%
    23:00 +22°C° 0 mm 1 m/s 759 mmHg 40%

    Après-demain, 18 Février, Mardi

    Heure Température Précipitation Vent Pression Humidité
    00:00 +21°C° 0 mm 1 m/s 759 mmHg 44%
    01:00 +21°C° 0 mm 1 m/s 759 mmHg 46%
    02:00 +20°C° 0 mm 2 m/s 759 mmHg 48%
    03:00 +19°C° 0 mm 2 m/s 758 mmHg 49%
    04:00 +19°C° 0 mm 2 m/s 759 mmHg 49%
    05:00 +18°C° 0 mm 2 m/s 759 mmHg 49%
    06:00 +18°C° 0 mm 2 m/s 759 mmHg 49%
    07:00 +20°C° 0 mm 2 m/s 759 mmHg 44%
    08:00 +24°C° 0 mm 2 m/s 760 mmHg 39%
    09:00 +26°C° 0 mm 2 m/s 761 mmHg 34%
    10:00 +28°C° 0 mm 2 m/s 760 mmHg 30%
    11:00 +30°C° 0 mm 2 m/s 760 mmHg 26%
    12:00 +32°C° 0 mm 2 m/s 760 mmHg 22%
    13:00 +34°C° 0 mm 2 m/s 759 mmHg 20%
    14:00 +34°C° 0 mm 3 m/s 758 mmHg 19%
    15:00 +35°C° 0 mm 3 m/s 757 mmHg 17%
    16:00 +33°C° 0 mm 3 m/s 757 mmHg 19%
    17:00 +30°C° 0 mm 3 m/s 757 mmHg 21%
    18:00 +28°C° 0 mm 2 m/s 757 mmHg 24%
    19:00 +27°C° 0 mm 2 m/s 758 mmHg 27%
    20:00 +25°C° 0 mm 2 m/s 758 mmHg 31%
    21:00 +24°C° 0 mm 1 m/s 759 mmHg 34%
    22:00 +23°C° 0 mm 1 m/s 759 mmHg 36%
    23:00 +22°C° 0 mm 1 m/s 759 mmHg 38%

    19 Février, Mercredi

    Heure Température Précipitation Vent Pression Humidité
    00:00 +21°C° 0 mm 1 m/s 758 mmHg 40%
    01:00 +21°C° 0 mm 1 m/s 758 mmHg 42%
    02:00 +21°C° 0 mm 1 m/s 758 mmHg 44%
    03:00 +19°C° 0 mm 2 m/s 758 mmHg 45%
    04:00 +19°C° 0 mm 2 m/s 758 mmHg 45%
    05:00 +20°C° 0 mm 1 m/s 758 mmHg 44%
    06:00 +19°C° 0 mm 1 m/s 758 mmHg 44%
    07:00 +22°C° 0 mm 1 m/s 759 mmHg 39%
    08:00 +24°C° 0 mm 1 m/s 760 mmHg 35%
    09:00 +27°C° 0 mm 1 m/s 761 mmHg 30%
    10:00 +29°C° 0 mm 1 m/s 760 mmHg 26%
    11:00 +31°C° 0 mm 2 m/s 760 mmHg 22%
    12:00 +35°C° 0 mm 2 m/s 760 mmHg 19%
    13:00 +35°C° 0 mm 2 m/s 759 mmHg 17%
    14:00 +35°C° 0 mm 3 m/s 758 mmHg 16%
    15:00 +36°C° 0 mm 3 m/s 758 mmHg 15%
    16:00 +34°C° 0 mm 3 m/s 758 mmHg 19%
    17:00 +31°C° 0 mm 3 m/s 757 mmHg 23%
    18:00 +28°C° 0 mm 3 m/s 757 mmHg 28%
    19:00 +27°C° 0 mm 3 m/s 758 mmHg 39%
    20:00 +25°C° 0 mm 3 m/s 759 mmHg 50%
    21:00 +22°C° 0 mm 3 m/s 759 mmHg 61%
    22:00 +21°C° 0 mm 2 m/s 759 mmHg 67%
    23:00 +21°C° 0 mm 2 m/s 759 mmHg 73%

    20 Février, Jeudi

    Heure Température Précipitation Vent Pression Humidité
    00:00 +21°C° 0 mm 1 m/s 759 mmHg 79%
    01:00 +21°C° 0 mm 1 m/s 759 mmHg 81%
    02:00 +19°C° 0 mm 2 m/s 759 mmHg 83%
    03:00 +19°C° 0 mm 2 m/s 758 mmHg 86%
    04:00 +20°C° 0 mm 1 m/s 759 mmHg 88%
    05:00 +20°C° 0 mm 1 m/s 759 mmHg 90%
    06:00 +20°C° 0 mm 1 m/s 759 mmHg 92%
    07:00 +22°C° 0 mm 1 m/s 760 mmHg 83%
    08:00 +24°C° 0 mm 1 m/s 760 mmHg 74%
    09:00 +26°C° 0 mm 1 m/s 761 mmHg 66%
    10:00 +28°C° 0 mm 1 m/s 761 mmHg 53%
    11:00 +31°C° 0 mm 2 m/s 761 mmHg 40%
    12:00 +34°C° 0 mm 2 m/s 760 mmHg 28%
    13:00 +35°C° 0 mm 2 m/s 760 mmHg 25%
    14:00 +36°C° 0 mm 2 m/s 759 mmHg 22%
    15:00 +36°C° 0 mm 2 m/s 758 mmHg 18%
    16:00 +34°C° 0 mm 2 m/s 758 mmHg 24%
    17:00 +31°C° 0 mm 3 m/s 758 mmHg 30%
    18:00 +29°C° 0 mm 3 m/s 758 mmHg 35%
    19:00 +27°C° 0 mm 3 m/s 759 mmHg 45%
    20:00 +26°C° 0 mm 3 m/s 759 mmHg 54%
    21:00 +24°C° 0 mm 2 m/s 760 mmHg 64%
    22:00 +23°C° 0 mm 2 m/s 760 mmHg 68%
    23:00 +21°C° 0 mm 2 m/s 760 mmHg 73%

    21 Février, Vendredi

    Heure Température Précipitation Vent Pression Humidité
    00:00 +21°C° 0 mm 2 m/s 760 mmHg 78%
    01:00 +20°C° 0 mm 2 m/s 760 mmHg 80%
    02:00 +20°C° 0 mm 2 m/s 760 mmHg 81%
    03:00 +20°C° 0 mm 2 m/s 759 mmHg 83%
    04:00 +20°C° 0 mm 1 m/s 760 mmHg 85%
    05:00 +20°C° 0 mm 1 m/s 760 mmHg 87%
    06:00 +18°C° 0 mm 0 m/s 760 mmHg 88%
    07:00 +20°C° 0 mm 0 m/s 761 mmHg 77%
    08:00 +22°C° 0 mm 0 m/s 762 mmHg 67%
    09:00 +27°C° 0 mm 1 m/s 763 mmHg 56%
    10:00 +28°C° 0 mm 0 m/s 762 mmHg 46%
    11:00 +30°C° 0 mm 0 m/s 762 mmHg 35%
    12:00 +33°C° 0 mm 0 m/s 762 mmHg 25%
    19:00 +29°C° 0 mm 1 m/s 760 mmHg 34%
    20:00 +27°C° 0 mm 2 m/s 761 mmHg 41%
    21:00 +25°C° 0 mm 3 m/s 761 mmHg 48%
    22:00 +24°C° 0 mm 2 m/s 761 mmHg 51%
    23:00 +24°C° 0 mm 1 m/s 761 mmHg 54%
    Voir plus